Location: Libas
(9.8833°N, 125.9833°E)
Time: 10:09:53
(UTC+00:00)

Envisat - Pass Details

Date: 24 January 2021
Orbit: 764 x 766 km, 98.1° (Epoch: 27 February)

Event Time Altitude Azimuth Distance (km) Brightness Sun altitude
Rises 20:23:21 0° 30° (NNE) 3,218 6.4 -23.2°
Reaches altitude 10° 20:25:55 10° 41° (NE) 2,293 5.7 -22.6°
Maximum altitude 20:30:16 29° 101° (E) 1,363 5.0 -21.5°
Drops below altitude 10° 20:34:37 10° 160° (SSE) 2,293 5.9 -20.5°
Sets 20:37:11 0° 171° (S) 3,219 6.6 -19.9°
